Laguna — WDF4470 — position and weather

sailwx.info

Track history (hours):
 
Tides and Currents Weather Stations Pressure Air Temp Water Temp Dewpoint Dewpoint Depression Visibility Wind Speed Wind Dir Waves Ship Positions

Laguna

Owner: GP RESOURCES INC., TERMINAL ISLAND, CA. More information available from US FCC via Universal Licensing System and Coast Guard Vessel Documentation Center.

Last reported at 2018-Feb-17 06:49 UTC. Time now 2018-Feb-20 10:02 UTC.
Position N 33°44' W 118°16'.

Length 15 m; draft 2.5 m.

MMSI: 367452280.

Date/timePositionNaut miles runAvg speedWind from/ knotsBaromVisibWave heightAir tempDewpointWater temp
2018-Feb-17 06:49N 33°44' W 118°16'1 1.7
2018-Feb-17 06:30N 33°44' W 118°16'1 1.6
2018-Feb-17 06:01N 33°43' W 118°16'26 5.4
2018-Feb-17 01:10N 33°53' W 118°45'1 6.8
2018-Feb-17 00:58N 33°53' W 118°47'4 6.7
2018-Feb-17 00:24N 33°55' W 118°51'3 6.6
2018-Feb-17 00:00N 33°56' W 118°54'4 6.5
2018-Feb-16 23:20N 33°58' W 118°58'2 6.2
2018-Feb-16 22:59N 33°59' W 119°00'3 6.3
2018-Feb-16 22:26N 34°01' W 119°04'3 6.4
2018-Feb-16 21:59N 34°03' W 119°07'3 6.3
2018-Feb-16 21:30N 34°04' W 119°10'3 6.3
2018-Feb-16 21:01N 34°06' W 119°13'3 6.4
2018-Feb-16 20:30N 34°08' W 119°16'3 5.8
2018-Feb-16 19:59N 34°11' W 119°18'4 5.9
2018-Feb-16 19:22N 34°14' W 119°18'1 3.1
2018-Feb-16 19:00N 34°15' W 119°16'0 0.0
2018-Feb-16 18:30N 34°15' W 119°16'0 0.0
2018-Feb-16 18:00N 34°15' W 119°16'0 0.0
2018-Feb-16 17:30N 34°15' W 119°16'0 0.0
2018-Feb-16 17:00N 34°15' W 119°16'1 1.2
2018-Feb-16 16:16N 34°14' W 119°17'2 5.6
2018-Feb-16 15:53N 34°12' W 119°18'2 6.2
2018-Feb-16 15:30N 34°10' W 119°18'3 6.2
2018-Feb-16 15:00N 34°07' W 119°16'3 6.3
2018-Feb-16 14:30N 34°06' W 119°13'3 6.5
2018-Feb-16 13:58N 34°04' W 119°09'3 6.3
2018-Feb-16 13:30N 34°03' W 119°06'3 6.4
2018-Feb-16 13:01N 34°01' W 119°02'3 6.4
2018-Feb-16 12:31N 33°59' W 118°59'3 6.4
2018-Feb-16 12:00N 33°58' W 118°56'3 6.2
2018-Feb-16 11:31N 33°56' W 118°52'3 6.4
2018-Feb-16 11:01N 33°55' W 118°49'3 6.3
2018-Feb-16 10:31N 33°53' W 118°46'3 6.3
2018-Feb-16 10:00N 33°52' W 118°42'3 6.4
2018-Feb-16 09:30N 33°50' W 118°39'3 6.3
2018-Feb-16 08:58N 33°49' W 118°35'3 6.2
2018-Feb-16 08:31N 33°47' W 118°32'3 6.2
2018-Feb-16 07:58N 33°46' W 118°29'3 6.0
2018-Feb-16 07:30N 33°44' W 118°26'4 6.0
2018-Feb-16 06:53N 33°42' W 118°22'5 5.8
2018-Feb-16 06:02N 33°41' W 118°16'0 5.5
2018-Feb-16 05:59N 33°41' W 118°16'2 4.4
2018-Feb-16 05:29N 33°44' W 118°16'1 1.3
2018-Feb-16 05:01N 33°44' W 118°16'0 0.0
2018-Feb-16 00:18N 33°44' W 118°16'0 0.0
2018-Feb-16 00:01N 33°44' W 118°16'0 0.1
2018-Feb-15 23:31N 33°44' W 118°16'0 0.0
2018-Feb-15 21:20N 33°44' W 118°16'0 0.0
2018-Feb-15 21:00N 33°44' W 118°16'0 0.0
2018-Feb-15 20:30N 33°44' W 118°16'0 0.0
2018-Feb-15 20:00N 33°44' W 118°16'0 0.0
2018-Feb-15 19:30N 33°44' W 118°16'0 0.1
2018-Feb-15 19:00N 33°44' W 118°16'0 0.0
2018-Feb-15 18:30N 33°44' W 118°16'  
2018-Feb-12 21:33N 33°44' W 118°16'0 0.0
2018-Feb-12 21:30N 33°44' W 118°16'1 1.9
2018-Feb-12 21:00N 33°43' W 118°16'1 1.8
2018-Feb-12 20:30N 33°44' W 118°16'0 0.0
2018-Feb-12 20:00N 33°44' W 118°16'0 0.0
2018-Feb-12 19:30N 33°44' W 118°16'0 0.0
2018-Feb-12 19:00N 33°44' W 118°16'0 0.0
2018-Feb-12 18:30N 33°44' W 118°16'0 0.0
2018-Feb-12 18:00N 33°44' W 118°16'0 0.0
2018-Feb-12 17:30N 33°44' W 118°16'0 0.0
2018-Feb-12 17:00N 33°44' W 118°16'0 0.0
2018-Feb-12 16:30N 33°44' W 118°16'0 0.0
2018-Feb-12 16:00N 33°44' W 118°16'0 0.0
2018-Feb-12 15:30N 33°44' W 118°16'0 0.0
2018-Feb-12 15:00N 33°44' W 118°16'0 0.6
2018-Feb-12 14:30N 33°44' W 118°16'0 0.0
2018-Feb-11 19:46N 33°44' W 118°16'0 1.9
2018-Feb-11 19:31N 33°44' W 118°16'2 3.5
2018-Feb-11 19:00N 33°44' W 118°14'0 0.3
2018-Feb-11 18:30N 33°44' W 118°14'0 0.1
2018-Feb-11 18:00N 33°44' W 118°14'0 0.1
2018-Feb-11 17:31N 33°44' W 118°14'0 0.1
2018-Feb-11 17:00N 33°44' W 118°14'0 0.6
2018-Feb-11 16:30N 33°43' W 118°14'2 4.2
2018-Feb-11 16:00N 33°44' W 118°16'0 0.0
2018-Feb-11 15:30N 33°44' W 118°16'0 0.0
2018-Feb-10 13:49N 33°44' W 118°16'0 1.2
2018-Feb-10 13:30N 33°44' W 118°16'2 3.5
2018-Feb-10 13:00N 33°44' W 118°14'0 0.9
2018-Feb-10 12:30N 33°44' W 118°14'0 0.0
2018-Feb-10 12:00N 33°44' W 118°14'2 2.2
2018-Feb-10 11:03N 33°43' W 118°16'0 6.4
2018-Feb-10 11:00N 33°43' W 118°16'1 1.8
2018-Feb-10 10:30N 33°44' W 118°15'0 0.0
2018-Feb-10 10:00N 33°44' W 118°15'0 0.0
2018-Feb-10 09:30N 33°44' W 118°15'0 0.0
2018-Feb-10 09:00N 33°44' W 118°15'0 0.0
2018-Feb-10 08:30N 33°44' W 118°15'0 0.0
2018-Feb-10 08:00N 33°44' W 118°15'0 0.0
2018-Feb-10 07:30N 33°44' W 118°15'0 0.2
2018-Feb-10 07:00N 33°44' W 118°15'2 2.9
2018-Feb-10 06:27N 33°43' W 118°13'0 0.2
2018-Feb-10 05:53N 33°44' W 118°13'0 0.0
2018-Feb-10 05:28N 33°44' W 118°13'0 0.0
2018-Feb-10 01:53N 33°44' W 118°13'2 6.1
2018-Feb-10 01:30N 33°46' W 118°13'0 0.9
2018-Feb-10 01:00N 33°46' W 118°14'0 0.0
2018-Feb-10 00:30N 33°46' W 118°14'0 0.0
2018-Feb-10 00:00N 33°46' W 118°14'0 0.0
2018-Feb-09 23:30N 33°46' W 118°14'0 0.0
2018-Feb-09 23:00N 33°46' W 118°14'0 0.0
2018-Feb-09 22:46N 33°46' W 118°14'3 0.1
2018-Feb-08 21:30N 33°44' W 118°16'0 0.0
2018-Feb-07 23:10N 33°44' W 118°16'0 0.0
2018-Feb-07 23:00N 33°44' W 118°16'0 0.0
2018-Feb-07 22:31N 33°44' W 118°16'0 0.0
2018-Feb-07 22:00N 33°44' W 118°16'0 0.0
2018-Feb-07 21:31N 33°44' W 118°16'  
Track history (hours):
 
Tides and Currents Weather Stations Pressure Air Temp Water Temp Dewpoint Dewpoint Depression Visibility Wind Speed Wind Dir Waves Ship Positions

Laguna

Owner: GP RESOURCES INC., TERMINAL ISLAND, CA. More information available from US FCC via Universal Licensing System and Coast Guard Vessel Documentation Center.

Last reported at 2018-Feb-17 06:49 UTC. Time now 2018-Feb-20 10:02 UTC.
Position N 33°44' W 118°16'.

Length 15 m; draft 2.5 m.

MMSI: 367452280.

Date/timePositionNaut miles runAvg speedWind from/ knotsBaromVisibWave heightAir tempDewpointWater temp
2018-Feb-17 06:49N 33°44' W 118°16'1 1.7
2018-Feb-17 06:30N 33°44' W 118°16'1 1.6
2018-Feb-17 06:01N 33°43' W 118°16'26 5.4
2018-Feb-17 01:10N 33°53' W 118°45'1 6.8
2018-Feb-17 00:58N 33°53' W 118°47'4 6.7
2018-Feb-17 00:24N 33°55' W 118°51'3 6.6
2018-Feb-17 00:00N 33°56' W 118°54'4 6.5
2018-Feb-16 23:20N 33°58' W 118°58'2 6.2
2018-Feb-16 22:59N 33°59' W 119°00'3 6.3
2018-Feb-16 22:26N 34°01' W 119°04'3 6.4
2018-Feb-16 21:59N 34°03' W 119°07'3 6.3
2018-Feb-16 21:30N 34°04' W 119°10'3 6.3
2018-Feb-16 21:01N 34°06' W 119°13'3 6.4
2018-Feb-16 20:30N 34°08' W 119°16'3 5.8
2018-Feb-16 19:59N 34°11' W 119°18'4 5.9
2018-Feb-16 19:22N 34°14' W 119°18'1 3.1
2018-Feb-16 19:00N 34°15' W 119°16'0 0.0
2018-Feb-16 18:30N 34°15' W 119°16'0 0.0
2018-Feb-16 18:00N 34°15' W 119°16'0 0.0
2018-Feb-16 17:30N 34°15' W 119°16'0 0.0
2018-Feb-16 17:00N 34°15' W 119°16'1 1.2
2018-Feb-16 16:16N 34°14' W 119°17'2 5.6
2018-Feb-16 15:53N 34°12' W 119°18'2 6.2
2018-Feb-16 15:30N 34°10' W 119°18'3 6.2
2018-Feb-16 15:00N 34°07' W 119°16'3 6.3
2018-Feb-16 14:30N 34°06' W 119°13'3 6.5
2018-Feb-16 13:58N 34°04' W 119°09'3 6.3
2018-Feb-16 13:30N 34°03' W 119°06'3 6.4
2018-Feb-16 13:01N 34°01' W 119°02'3 6.4
2018-Feb-16 12:31N 33°59' W 118°59'3 6.4
2018-Feb-16 12:00N 33°58' W 118°56'3 6.2
2018-Feb-16 11:31N 33°56' W 118°52'3 6.4
2018-Feb-16 11:01N 33°55' W 118°49'3 6.3
2018-Feb-16 10:31N 33°53' W 118°46'3 6.3
2018-Feb-16 10:00N 33°52' W 118°42'3 6.4
2018-Feb-16 09:30N 33°50' W 118°39'3 6.3
2018-Feb-16 08:58N 33°49' W 118°35'3 6.2
2018-Feb-16 08:31N 33°47' W 118°32'3 6.2
2018-Feb-16 07:58N 33°46' W 118°29'3 6.0
2018-Feb-16 07:30N 33°44' W 118°26'4 6.0
2018-Feb-16 06:53N 33°42' W 118°22'5 5.8
2018-Feb-16 06:02N 33°41' W 118°16'0 5.5
2018-Feb-16 05:59N 33°41' W 118°16'2 4.4
2018-Feb-16 05:29N 33°44' W 118°16'1 1.3
2018-Feb-16 05:01N 33°44' W 118°16'0 0.0
2018-Feb-16 00:18N 33°44' W 118°16'0 0.0
2018-Feb-16 00:01N 33°44' W 118°16'0 0.1
2018-Feb-15 23:31N 33°44' W 118°16'0 0.0
2018-Feb-15 21:20N 33°44' W 118°16'0 0.0
2018-Feb-15 21:00N 33°44' W 118°16'0 0.0
2018-Feb-15 20:30N 33°44' W 118°16'0 0.0
2018-Feb-15 20:00N 33°44' W 118°16'0 0.0
2018-Feb-15 19:30N 33°44' W 118°16'0 0.1
2018-Feb-15 19:00N 33°44' W 118°16'0 0.0
2018-Feb-15 18:30N 33°44' W 118°16'  
2018-Feb-12 21:33N 33°44' W 118°16'0 0.0
2018-Feb-12 21:30N 33°44' W 118°16'1 1.9
2018-Feb-12 21:00N 33°43' W 118°16'1 1.8
2018-Feb-12 20:30N 33°44' W 118°16'0 0.0
2018-Feb-12 20:00N 33°44' W 118°16'0 0.0
2018-Feb-12 19:30N 33°44' W 118°16'0 0.0
2018-Feb-12 19:00N 33°44' W 118°16'0 0.0
2018-Feb-12 18:30N 33°44' W 118°16'0 0.0
2018-Feb-12 18:00N 33°44' W 118°16'0 0.0
2018-Feb-12 17:30N 33°44' W 118°16'0 0.0
2018-Feb-12 17:00N 33°44' W 118°16'0 0.0
2018-Feb-12 16:30N 33°44' W 118°16'0 0.0
2018-Feb-12 16:00N 33°44' W 118°16'0 0.0
2018-Feb-12 15:30N 33°44' W 118°16'0 0.0
2018-Feb-12 15:00N 33°44' W 118°16'0 0.6
2018-Feb-12 14:30N 33°44' W 118°16'0 0.0
2018-Feb-11 19:46N 33°44' W 118°16'0 1.9
2018-Feb-11 19:31N 33°44' W 118°16'2 3.5
2018-Feb-11 19:00N 33°44' W 118°14'0 0.3
2018-Feb-11 18:30N 33°44' W 118°14'0 0.1
2018-Feb-11 18:00N 33°44' W 118°14'0 0.1
2018-Feb-11 17:31N 33°44' W 118°14'0 0.1
2018-Feb-11 17:00N 33°44' W 118°14'0 0.6
2018-Feb-11 16:30N 33°43' W 118°14'2 4.2
2018-Feb-11 16:00N 33°44' W 118°16'0 0.0
2018-Feb-11 15:30N 33°44' W 118°16'0 0.0
2018-Feb-10 13:49N 33°44' W 118°16'0 1.2
2018-Feb-10 13:30N 33°44' W 118°16'2 3.5
2018-Feb-10 13:00N 33°44' W 118°14'0 0.9
2018-Feb-10 12:30N 33°44' W 118°14'0 0.0
2018-Feb-10 12:00N 33°44' W 118°14'2 2.2
2018-Feb-10 11:03N 33°43' W 118°16'0 6.4
2018-Feb-10 11:00N 33°43' W 118°16'1 1.8
2018-Feb-10 10:30N 33°44' W 118°15'0 0.0
2018-Feb-10 10:00N 33°44' W 118°15'0 0.0
2018-Feb-10 09:30N 33°44' W 118°15'0 0.0
2018-Feb-10 09:00N 33°44' W 118°15'0 0.0
2018-Feb-10 08:30N 33°44' W 118°15'0 0.0
2018-Feb-10 08:00N 33°44' W 118°15'0 0.0
2018-Feb-10 07:30N 33°44' W 118°15'0 0.2
2018-Feb-10 07:00N 33°44' W 118°15'2 2.9
2018-Feb-10 06:27N 33°43' W 118°13'0 0.2
2018-Feb-10 05:53N 33°44' W 118°13'0 0.0
2018-Feb-10 05:28N 33°44' W 118°13'0 0.0
2018-Feb-10 01:53N 33°44' W 118°13'2 6.1
2018-Feb-10 01:30N 33°46' W 118°13'0 0.9
2018-Feb-10 01:00N 33°46' W 118°14'0 0.0
2018-Feb-10 00:30N 33°46' W 118°14'0 0.0
2018-Feb-10 00:00N 33°46' W 118°14'0 0.0
2018-Feb-09 23:30N 33°46' W 118°14'0 0.0
2018-Feb-09 23:00N 33°46' W 118°14'0 0.0
2018-Feb-09 22:46N 33°46' W 118°14'3 0.1
2018-Feb-08 21:30N 33°44' W 118°16'0 0.0
2018-Feb-07 23:10N 33°44' W 118°16'0 0.0
2018-Feb-07 23:00N 33°44' W 118°16'0 0.0
2018-Feb-07 22:31N 33°44' W 118°16'0 0.0
2018-Feb-07 22:00N 33°44' W 118°16'0 0.0
2018-Feb-07 21:31N 33°44' W 118°16'  

Dump ship's entire track history